FENGYUN 1C DEB, 31046

Orbit data source: Space-Track

FENGYUN 1C DEB, 31046 is space debris in SSO originally from a launch on Mon, 10 May 1999 UTC launched from the Taiyaun Space Center, China (TSC). Fengyun 1C debris stems from the Chinese weather satellite Fengyun-1C, which was intentionally destroyed by a Chinese anti-satellite missile in 2007. This event dramatically increased the amount of space debris, with thousands of trackable fragments posing hazards to satellites and human spaceflight. The Fengyun 1C debris cloud has become a focal point in discussions about space sustainability and the need for international regulations to prevent the creation of new debris.

Loading next visibility...
Identifier
31046, 1999-025BEQ
Orbit
SSO
Country
Flag of CNCN / PRC
Related business
Manufacturer
Unknown
Mission
Spacecraft
Bus & Motor
Unknown
Mass
Unknown
Launch date (UTC)
1999-05-10 (27 years ago)
Launch vehicle
Unknown
Launch site
Taiyaun Space Center, China (TSC)
Object type
Payload
Rocket body
Debris
Shape & HBR
Unknown shape, 0.1 m
Radar Cross Section
Medium (>0.1 m² and <1 m²)

Expand to show TLE details & history
Last TLE update: 1 day ago

TLE from 1 day ago
0 FENGYUN 1C DEB
1 31046U 99025BEQ 26253.40396977  .00018377  00000-0  25177-2 0  9992
2 31046  98.9629  45.4446 0033357 337.8550  77.6582 14.78140284  6323
Epoch: 2026-09-10T09:41Z
TLE epoch observation values (Epoch: 2026-09-10T09:41:42.988Z)
Latitude
54.97096°
Longitude
-102.35823°
Altitude
639.354 km
Speed
7.546 km/s
True Right ascension
02h 10m 03s
True Declination
54° 48' 23"
Sunlit
Object was in daylight at epoch
Visualization orbit readout
Latitude
Unknown
Longitude
Unknown
Altitude
Unknown
Speed
Unknown
Apparent Right ascension
Unknown
Apparent Declination
Unknown
Sunlit
N/A
Visualization observer readout
Local Sidereal Time
05:02:31
Azimuth
Unknown
Elevation
Unknown
Doppler factor
Unknown
Orbital elements
Apogee altitude
655.679 km
Perigee altitude
608.91 km
Semi-major axis
7,010.431 km
Eccentricity
0.00334
Inclination
98.9629°
RAAN
45.4446°
Arg. of periapsis
337.855°
True anomaly
78.03194°
Mean anomaly
77.6582°
Eccentric anomaly
77.84504°
Mean motion
3.69765 °/min
Orbital period
97.36 mins
BSTAR
0.0025177
Loading maneuver chart data...
Computing Atmospheric mass density...
Loading historical data...
Loading historical data...
Loading historical data...
Loading historical data...
Loading historical data...
Loading historical data...
Loading historical data...

Documentation

Showing up to 5 results
|